This is the latest recevied weather packets stored in our database for station/object F4FEB-14. If no packets are shown the sender has not sent any weather packets the latest 10 day(s).
| Time | Temp. | Humidity | Pressure | Rain* | Wind** | Luminosity | Snow |
|---|---|---|---|---|---|---|---|
| 1777360820 | 13.33° C | 100% | 1015.8 hPa | 0 mm | - | - | - |
| 1777360519 | 13.89° C | 100% | 1015.8 hPa | 0 mm | - | - | - |
| 1777360218 | 13.89° C | 100% | 1015.7 hPa | 0 mm | - | - | - |
| 1777359917 | 13.33° C | 100% | 1015.7 hPa | 0 mm | - | - | - |
| 1777359616 | 13.33° C | 100% | 1015.7 hPa | 0 mm | - | - | - |
| 1777359315 | 12.78° C | 100% | 1015.6 hPa | 0 mm | - | - | - |
| 1777358714 | 10.56° C | 100% | 1015.8 hPa | 0 mm | - | - | - |
| 1777358413 | 9.44° C | 100% | 1015.8 hPa | 0 mm | - | - | - |
| 1777357810 | 8.33° C | 100% | 1015.9 hPa | 0 mm | - | - | - |
| 1777357509 | 7.78° C | 100% | 1015.8 hPa | 0 mm | - | - | - |
| 1777357207 | 7.78° C | 100% | 1015.8 hPa | 0 mm | - | - | - |
| 1777356906 | 7.22° C | 100% | 1015.8 hPa | 0 mm | - | - | - |
| 1777356604 | 7.22° C | 100% | 1015.9 hPa | 0 mm | - | - | - |
| 1777356303 | 6.67° C | 100% | 1015.9 hPa | 0 mm | - | - | - |
| 1777355701 | 6.67° C | 100% | 1015.9 hPa | 0 mm | - | - | - |
| 1777355400 | 6.67° C | 100% | 1015.8 hPa | 0 mm | - | - | - |
| 1777355098 | 6.11° C | 100% | 1015.7 hPa | 0 mm | - | - | - |
| 1777354797 | 6.11° C | 100% | 1015.8 hPa | 0 mm | - | - | - |
| 1777354496 | 6.11° C | 100% | 1015.8 hPa | 0 mm | - | - | - |
| 1777354195 | 6.11° C | 100% | 1015.8 hPa | 0 mm | - | - | - |
| 1777353894 | 5.56° C | 100% | 1015.7 hPa | 0 mm | - | - | - |
| 1777353593 | 5.56° C | 100% | 1015.8 hPa | 0 mm | - | - | - |
| 1777353291 | 5.56° C | 100% | 1015.8 hPa | 0 mm | - | - | - |
| 1777352990 | 5° C | 100% | 1015.8 hPa | 0 mm | - | - | - |
| 1777352689 | 5° C | 100% | 1015.8 hPa | 0 mm | - | - | - |
* Rain latest hour (hover to see other rain measurements)
** Current wind speed in m/s (hover to see current wind gust speed)